DW8749 Weather Reports


Display with metric or nautical units.
time (UTC)temp
F
wind
direction
speed
MPH
gust
MPH
rain 1hr
in
rain 24hr
in
rain mn
in
humidity
%
barometer
mb
20260906194017 89 133 2.0 10.0 0.00 0.00 0.00 54 1014.1
20260906193518 89 55 2.0 10.0 0.00 0.00 0.00 56 1014.2
20260906193030 88 65 4.0 10.0 0.00 0.00 0.00 57 1014.4
20260906192507 87 83 2.0 10.0 0.00 0.00 0.00 57 1014.6
20260906192007 87 87 4.0 10.0 0.00 0.00 0.00 57 1014.7
20260906191514 87 49 6.0 10.0 0.00 0.00 0.00 56 1014.9
20260906191009 87 26 6.0 12.0 0.00 0.00 0.00 57 1015.1
20260906190512 87 55 6.0 12.0 0.00 0.00 0.00 57 1015.2
20260906190026 87 69 5.0 10.0 0.00 0.00 0.00 56 1015.4
20260906185514 87 69 4.0 10.0 0.00 0.00 0.00 57 1015.5
20260906185015 86 53 3.0 10.0 0.00 0.00 0.00 58 1015.5
20260906184530 86 29 4.0 10.0 0.00 0.00 0.00 57 1015.6
20260906184018 86 44 5.0 10.0 0.00 0.00 0.00 59 1015.8
20260906183517 86 57 3.0 7.0 0.00 0.00 0.00 59 1015.9
20260906183008 85 78 3.0 9.0 0.00 0.00 0.00 59 1016.0
20260906182507 85 56 5.0 9.0 0.00 0.00 0.00 58 1016.2
20260906182009 85 57 2.0 9.0 0.00 0.00 0.00 59 1016.4
20260906181536 85 63 4.0 10.0 0.00 0.00 0.00 59 1016.5
20260906181010 84 34 5.0 12.0 0.00 0.00 0.00 59 1016.5
20260906180512 84 30 4.0 12.0 0.00 0.00 0.00 60 1016.6
20260906180028 84 30 3.0 9.0 0.00 0.00 0.00 60 1016.8
20260906175514 84 27 5.0 8.0 0.00 0.00 0.00 60 1017.0
20260906175019 83 44 2.0 9.0 0.00 0.00 0.00 61 1017.0
20260906174533 83 50 3.0 11.0 0.00 0.00 0.00 61 1017.1
20260906174016 83 22 3.0 11.0 0.00 0.00 0.00 61 1017.1
20260906173505 83 43 5.0 11.0 0.00 0.00 0.00 61 1016.9
20260906173013 83 65 4.0 9.0 0.00 0.00 0.00 61 1017.0
20260906172510 83 47 2.0 9.0 0.00 0.00 0.00 62 1017.1
20260906172010 83 22 5.0 11.0 0.00 0.00 0.00 62 1017.2
20260906171518 83 34 5.0 11.0 0.00 0.00 0.00 62 1017.3
20260906171012 82 52 2.0 10.0 0.00 0.00 0.00 62 1017.3
20260906170518 82 45 4.0 10.0 0.00 0.00 0.00 62 1017.4
20260906170029 82 33 6.0 11.0 0.00 0.00 0.00 62 1017.4
20260906165516 82 36 5.0 11.0 0.00 0.00 0.00 63 1017.5
20260906165020 82 51 2.0 5.0 0.00 0.00 0.00 64 1017.7
20260906164539 82 66 3.0 9.0 0.00 0.00 0.00 65 1017.8
20260906164016 82 31 3.0 9.0 0.00 0.00 0.00 64 1017.8
20260906163507 82 34 3.0 9.0 0.00 0.00 0.00 64 1017.8
20260906163014 81 67 4.0 10.0 0.00 0.00 0.00 65 1017.8
20260906162512 81 61 4.0 10.0 0.00 0.00 0.00 65 1017.9
20260906162012 81 68 3.0 10.0 0.00 0.00 0.00 66 1017.8
20260906161524 81 13 5.0 12.0 0.00 0.00 0.00 66 1017.7
20260906161014 81 36 6.0 12.0 0.00 0.00 0.00 65 1017.8
20260906160514 81 9 4.0 10.0 0.00 0.00 0.00 65 1017.8
20260906160031 80 17 6.0 12.0 0.00 0.00 0.00 65 1017.7
20260906155517 80 39 5.0 13.0 0.00 0.00 0.00 65 1017.7
20260906155017 80 36 4.0 13.0 0.00 0.00 0.00 65 1017.6
20260906154541 80 9 8.0 14.0 0.00 0.00 0.00 65 1017.6
20260906154007 80 19 6.0 14.0 0.00 0.00 0.00 65 1017.6
20260906153511 79 30 5.0 11.0 0.00 0.00 0.00 66 1017.5
20260906153021 79 344 4.0 11.0 0.00 0.00 0.00 66 1017.5
20260906152512 79 11 4.0 11.0 0.00 0.00 0.00 67 1017.5
20260906152012 78 360 4.0 9.0 0.00 0.00 0.00 68 1017.5
20260906151527 78 346 6.0 9.0 0.00 0.00 0.00 69 1017.5
20260906151017 78 15 3.0 9.0 0.00 0.00 0.00 69 1017.4
20260906150517 78 336 4.0 11.0 0.00 0.00 0.00 69 1017.3
20260906150031 78 352 5.0 11.0 0.00 0.00 0.00 69 1017.3
20260906145519 78 331 6.0 11.0 0.00 0.00 0.00 69 1017.3
20260906145017 78 340 7.0 11.0 0.00 0.00 0.00 69 1017.2
20260906144515 78 348 5.0 9.0 0.00 0.00 0.00 69 1017.2
20260906144008 78 317 4.0 8.0 0.00 0.00 0.00 69 1017.3
20260906143512 78 351 5.0 8.0 0.00 0.00 0.00 68 1017.3
20260906143024 77 342 4.0 8.0 0.00 0.00 0.00 68 1017.3
20260906142514 77 324 3.0 5.0 0.00 0.00 0.00 68 1017.3
20260906142017 77 342 3.0 4.0 0.00 0.00 0.00 68 1017.4
20260906141533 77 325 1.0 7.0 0.00 0.00 0.00 69 1017.3
20260906141019 77 334 2.0 8.0 0.00 0.00 0.00 69 1017.4
20260906141007 77 333 2.0 8.0 0.00 0.00 0.00 68 1017.4
20260906140506 77 308 5.0 11.0 0.00 0.00 0.00 68 1017.5
20260906140007 77 309 5.0 11.0 0.00 0.00 0.00 68 1017.6
20260906135504 77 319 7.0 16.0 0.00 0.00 0.00 69 1017.6
20260906135003 77 304 8.0 16.0 0.00 0.00 0.00 68 1017.5
20260906134511 77 344 9.0 14.0 0.00 0.00 0.00 69 1017.6
20260906134008 77 162 0.0 0.0 0.00 0.00 0.00 65 1016.9
20260906133505 77 162 0.0 0.0 0.00 0.00 0.00 66 1016.7
20260906133004 76 162 0.0 0.0 0.00 0.00 0.00 65 1016.6
20260906132504 76 162 0.0 0.0 0.00 0.00 0.00 66 1016.5
20260906132004 76 162 0.0 0.0 0.00 0.00 0.00 66 1016.3
20260906131511 76 162 0.0 0.0 0.00 0.00 0.00 67 1016.2
20260906131004 75 162 0.0 0.0 0.00 0.00 0.00 68 1016.1
20260906130504 75 162 0.0 0.0 0.00 0.00 0.00 67 1016.0
20260906130007 75 162 0.0 0.0 0.00 0.00 0.00 68 1016.0
20260906125503 75 162 0.0 0.0 0.00 0.00 0.00 67 1015.9
20260906125005 75 162 0.0 0.0 0.00 0.00 0.00 67 1015.8
20260906124508 75 162 0.0 0.0 0.00 0.00 0.00 68 1015.7
20260906124006 75 162 0.0 0.0 0.00 0.00 0.00 67 1015.7
20260906123503 75 162 0.0 0.0 0.00 0.00 0.00 67 1015.7
20260906123010 75 162 0.0 0.0 0.00 0.00 0.00 67 1015.6
20260906122505 75 162 0.0 0.0 0.00 0.00 0.00 67 1015.6
20260906122003 75 166 0.0 0.0 0.00 0.00 0.00 67 1015.5
20260906121507 75 156 0.0 0.0 0.00 0.00 0.00 67 1015.4
20260906121007 75 174 0.0 2.0 0.00 0.00 0.00 67 1015.3
20260906120506 75 149 0.0 4.0 0.00 0.00 0.00 67 1015.2
20260906120007 75 159 1.0 4.0 0.00 0.00 0.00 66 1015.2
20260906115504 75 136 1.0 4.0 0.00 0.00 0.00 66 1015.1
20260906115006 75 157 1.0 4.0 0.00 0.00 0.00 66 1015.0
20260906114523 75 182 2.0 4.0 0.00 0.00 0.00 66 1015.0
20260906114007 75 156 1.0 5.0 0.00 0.00 0.00 66 1015.0
20260906113502 76 157 2.0 5.0 0.00 0.00 0.00 66 1015.0
20260906113008 76 146 2.0 5.0 0.00 0.00 0.00 66 1014.9
20260906112503 76 160 2.0 5.0 0.00 0.00 0.00 66 1014.7
20260906112007 76 142 0.0 6.0 0.00 0.00 0.00 66 1014.5
20260906111511 76 148 3.0 6.0 0.00 0.00 0.00 66 1014.4
20260906111006 76 149 3.0 6.0 0.00 0.00 0.00 66 1014.4
20260906110506 76 140 3.0 7.0 0.00 0.00 0.00 66 1014.3
20260906110013 76 150 3.0 7.0 0.00 0.00 0.00 66 1014.3
20260906105507 76 163 3.0 7.0 0.00 0.00 0.00 66 1014.3
20260906105008 76 98 4.0 7.0 0.00 0.00 0.00 66 1014.3
20260906104513 76 145 3.0 6.0 0.00 0.00 0.00 66 1014.2
20260906104002 76 128 3.0 7.0 0.00 0.00 0.00 66 1014.2
20260906103504 76 143 3.0 8.0 0.00 0.00 0.00 66 1014.3
20260906103008 76 139 3.0 8.0 0.00 0.00 0.00 66 1014.2
20260906102510 76 133 3.0 6.0 0.00 0.00 0.00 66 1014.3
20260906102009 76 142 2.0 6.0 0.00 0.00 0.00 66 1014.4
20260906101513 76 171 3.0 6.0 0.00 0.00 0.00 65 1014.4
20260906101008 76 170 3.0 6.0 0.00 0.00 0.00 65 1014.4
20260906100508 76 144 0.0 5.0 0.00 0.00 0.00 65 1014.4
20260906100014 76 153 0.0 3.0 0.00 0.00 0.00 65 1014.4
20260906095513 77 143 0.0 2.0 0.00 0.00 0.00 65 1014.4
20260906095008 77 137 0.0 4.0 0.00 0.00 0.00 65 1014.4
20260906094533 77 130 1.0 4.0 0.00 0.00 0.00 65 1014.4
20260906094005 77 132 1.0 4.0 0.00 0.00 0.00 65 1014.3
20260906093508 77 147 2.0 4.0 0.00 0.00 0.00 65 1014.3
20260906093018 77 145 0.0 5.0 0.00 0.00 0.00 65 1014.3
20260906092507 77 140 3.0 6.0 0.00 0.00 0.00 65 1014.2
20260906092008 77 134 3.0 6.0 0.00 0.00 0.00 65 1014.2
20260906091513 77 126 2.0 6.0 0.00 0.00 0.00 65 1014.1
20260906091011 77 141 3.0 6.0 0.00 0.00 0.00 64 1014.1
20260906090510 77 148 2.0 7.0 0.00 0.00 0.00 64 1014.0
20260906090024 77 153 2.0 7.0 0.00 0.00 0.00 64 1014.1
20260906085510 77 152 3.0 5.0 0.00 0.00 0.00 64 1014.2
20260906085008 77 139 3.0 7.0 0.00 0.00 0.00 64 1014.2
20260906084508 77 148 2.0 7.0 0.00 0.00 0.00 64 1014.2
20260906084007 77 160 3.0 6.0 0.00 0.00 0.00 65 1014.2
20260906083507 78 148 3.0 6.0 0.00 0.00 0.00 65 1014.1
20260906083026 77 145 2.0 6.0 0.00 0.00 0.00 65 1014.1
20260906082511 78 156 3.0 5.0 0.00 0.00 0.00 65 1014.1
20260906082010 77 157 3.0 7.0 0.00 0.00 0.00 65 1014.1
20260906081517 77 148 3.0 7.0 0.00 0.00 0.00 65 1014.1
20260906081010 77 136 3.0 6.0 0.00 0.00 0.00 65 1014.2
20260906080510 77 164 1.0 4.0 0.00 0.00 0.00 65 1014.2
20260906080017 77 166 1.0 4.0 0.00 0.00 0.00 66 1014.4
20260906075511 77 184 0.0 4.0 0.00 0.00 0.00 66 1014.3
20260906075007 77 186 0.0 3.0 0.00 0.00 0.00 67 1014.3
20260906074517 77 165 0.0 3.0 0.00 0.00 0.00 67 1014.2
20260906074012 77 150 0.0 3.0 0.00 0.00 0.00 67 1014.2
20260906073512 78 141 1.0 4.0 0.00 0.00 0.00 67 1014.2
20260906073025 78 136 2.0 4.0 0.00 0.00 0.00 67 1014.3
20260906072511 78 143 2.0 4.0 0.00 0.00 0.00 67 1014.3
20260906072014 77 145 2.0 4.0 0.00 0.00 0.00 68 1014.2
20260906071520 78 134 1.0 3.0 0.00 0.00 0.00 68 1014.1
20260906071012 78 140 0.0 3.0 0.00 0.00 0.00 68 1014.1
20260906070514 78 149 0.0 4.0 0.00 0.00 0.00 68 1014.2
20260906070021 78 125 2.0 4.0 0.00 0.00 0.00 68 1014.2
20260906065513 78 153 0.0 2.0 0.00 0.00 0.00 68 1014.2
20260906065009 78 153 0.0 2.0 0.00 0.00 0.00 68 1014.2
20260906064515 78 163 0.0 2.0 0.00 0.00 0.00 68 1014.2
20260906064010 78 153 0.0 5.0 0.00 0.00 0.00 68 1014.1
20260906063513 78 144 1.0 5.0 0.00 0.00 0.00 68 1013.9
20260906063019 78 132 0.0 2.0 0.00 0.00 0.00 69 1013.8
20260906062514 78 175 0.0 3.0 0.00 0.00 0.00 69 1014.0
20260906062013 78 134 0.0 5.0 0.00 0.00 0.00 69 1013.9
20260906061529 78 141 0.0 5.0 0.00 0.00 0.00 69 1013.9
20260906061011 78 147 2.0 5.0 0.00 0.00 0.00 70 1013.8
20260906060514 77 146 0.0 2.0 0.00 0.00 0.00 70 1013.8
20260906060021 77 111 0.0 2.0 0.00 0.00 0.00 71 1013.8
20260906055507 77 137 0.0 0.0 0.00 0.00 0.00 72 1013.8
20260906055010 77 127 0.0 0.0 0.00 0.00 0.00 72 1013.9
20260906054519 77 135 0.0 0.0 0.00 0.00 0.00 73 1013.9
20260906054013 77 135 0.0 0.0 0.00 0.00 0.00 73 1014.0
20260906053513 77 135 0.0 0.0 0.00 0.00 0.00 73 1013.9
20260906053026 77 135 0.0 0.0 0.00 0.00 0.00 72 1013.9
20260906052512 77 135 0.0 0.0 0.00 0.00 0.00 72 1014.1
20260906052004 77 135 0.0 0.0 0.00 0.00 0.00 72 1014.0
20260906051508 77 135 0.0 0.0 0.00 0.00 0.00 72 1014.0
20260906051007 77 135 0.0 0.0 0.00 0.00 0.00 71 1014.0
20260906050508 77 135 0.0 0.0 0.00 0.00 0.00 72 1014.0
20260906050015 77 170 0.0 0.0 0.00 0.00 0.00 71 1014.0
20260906045511 77 170 0.0 1.0 0.00 0.00 0.00 71 1014.0
20260906045010 77 169 0.0 1.0 0.00 0.00 0.00 71 1013.9
20260906044523 77 159 0.0 0.0 0.00 0.00 0.00 71 1013.9
20260906044013 77 163 0.0 0.0 0.00 0.00 0.00 71 1013.9
20260906043513 77 168 0.0 1.0 0.00 0.00 0.00 71 1013.9
20260906043024 78 211 0.0 1.0 0.00 0.00 0.00 70 1013.8
20260906042511 78 203 0.0 2.0 0.00 0.00 0.00 70 1014.0
20260906042003 78 226 0.0 2.0 0.00 0.00 0.00 70 1013.9
20260906041507 78 205 0.0 0.0 0.00 0.00 0.00 69 1013.9
20260906041009 78 231 0.0 0.0 0.00 0.00 0.00 69 1013.9
20260906040507 79 231 0.0 0.0 0.00 0.00 0.00 69 1013.9
20260906040021 79 231 0.0 0.0 0.00 0.00 0.00 68 1014.0
20260906035512 79 231 0.0 0.0 0.00 0.00 0.00 69 1014.1
20260906035016 79 232 0.0 0.0 0.00 0.00 0.00 68 1014.1
20260906034528 79 201 0.0 0.0 0.00 0.00 0.00 68 1014.1
20260906034015 79 171 0.0 0.0 0.00 0.00 0.00 68 1013.9
20260906033515 79 171 0.0 2.0 0.00 0.00 0.00 68 1013.9
20260906033037 80 226 0.0 2.0 0.00 0.00 0.00 68 1013.9
20260906032503 80 239 0.0 0.0 0.00 0.00 0.00 68 1013.9
20260906032008 80 208 0.0 0.0 0.00 0.00 0.00 68 1013.7
20260906031512 80 129 0.0 0.0 0.00 0.00 0.00 68 1013.6
20260906031008 80 129 0.0 0.0 0.00 0.00 0.00 68 1013.5
20260906030510 80 129 0.0 0.0 0.00 0.00 0.00 69 1013.4
20260906030021 80 129 0.0 0.0 0.00 0.00 0.00 69 1013.3
20260906025512 80 129 0.0 0.0 0.00 0.00 0.00 68 1013.3
20260906025017 80 129 0.0 0.0 0.00 0.00 0.00 68 1013.4
20260906024541 80 336 0.0 0.0 0.00 0.00 0.00 67 1013.3
20260906024014 80 336 0.0 0.0 0.00 0.00 0.00 68 1013.2
20260906023516 80 336 0.0 0.0 0.00 0.00 0.00 68 1013.2
20260906023026 81 336 0.0 0.0 0.00 0.00 0.00 68 1013.1
20260906022506 81 336 0.0 0.0 0.00 0.00 0.00 68 1013.1
20260906022006 81 336 0.0 0.0 0.00 0.00 0.00 68 1013.1
20260906021512 81 336 0.0 0.0 0.00 0.00 0.00 67 1013.1
20260906021012 81 336 0.0 0.0 0.00 0.00 0.00 68 1013.0
20260906020513 81 336 0.0 0.0 0.00 0.00 0.00 67 1013.1
20260906020023 81 336 0.0 0.0 0.00 0.00 0.00 67 1013.1
20260906015515 81 336 0.0 0.0 0.00 0.00 0.00 67 1013.0
20260906015015 81 336 0.0 0.0 0.00 0.00 0.00 68 1012.9
20260906014539 81 336 0.0 0.0 0.00 0.00 0.00 67 1012.8
20260906014016 82 336 0.0 0.0 0.00 0.00 0.00 68 1012.8
20260906013517 82 336 0.0 0.0 0.00 0.00 0.00 68 1012.6
20260906013027 82 336 0.0 0.0 0.00 0.00 0.00 68 1012.6
20260906012510 82 336 0.0 0.0 0.00 0.00 0.00 67 1012.6
20260906012008 82 336 0.0 0.0 0.00 0.00 0.00 67 1012.6
20260906011518 83 336 0.0 0.0 0.00 0.00 0.00 66 1012.5
20260906011013 83 336 0.0 0.0 0.00 0.00 0.00 66 1012.5
20260906010513 83 336 0.0 0.0 0.00 0.00 0.00 65 1012.6
20260906010028 83 336 0.0 0.0 0.00 0.00 0.00 64 1012.6
20260906005515 83 336 0.0 2.0 0.00 0.00 0.00 64 1012.6
20260906005017 83 336 0.0 2.0 0.00 0.00 0.00 64 1012.7
20260906004529 83 234 0.0 0.0 0.00 0.00 0.00 63 1012.7
20260906004014 83 182 0.0 0.0 0.00 0.00 0.00 62 1012.5
20260906003508 83 182 0.0 0.0 0.00 0.00 0.00 63 1012.7
20260906003014 83 241 0.0 2.0 0.00 0.00 0.00 63 1012.7
20260906002511 83 241 0.0 2.0 0.00 0.00 0.00 63 1012.7
20260906002012 83 268 0.0 3.0 0.00 0.00 0.00 63 1012.8
20260906001523 83 298 0.0 3.0 0.00 0.00 0.00 63 1012.6
20260906001015 83 263 0.0 2.0 0.00 0.00 0.00 63 1012.6
20260906000515 83 263 0.0 2.0 0.00 0.00 0.00 63 1012.6
20260906000032 83 263 0.0 1.0 0.00 0.00 0.00 63 1012.6
20260905235519 83 39 0.0 2.0 0.00 0.00 0.00 63 1012.4
20260905235015 83 39 1.0 4.0 0.00 0.00 0.00 63 1012.3
20260905234529 83 39 1.0 4.0 0.00 0.00 0.00 63 1012.2
20260905234014 82 38 2.0 5.0 0.00 0.00 0.00 64 1012.3
20260905233510 82 49 3.0 5.0 0.00 0.00 0.00 64 1012.4
20260905233015 82 37 2.0 5.0 0.00 0.00 0.00 64 1012.4
20260905232513 82 30 1.0 11.0 0.00 0.00 0.00 65 1012.5
20260905232013 83 342 4.0 11.0 0.00 0.00 0.00 65 1012.7
20260905231524 82 86 0.0 2.0 0.00 0.00 0.00 63 1012.5
20260905231015 82 86 0.0 2.0 0.00 0.00 0.00 65 1012.4
20260905230517 82 155 0.0 0.0 0.00 0.00 0.00 65 1012.4
20260905230006 81 304 0.0 0.0 0.00 0.00 0.00 66 1012.4
20260905225503 81 304 0.0 2.0 0.00 0.00 0.00 66 1012.5
20260905225006 81 304 0.0 4.0 0.00 0.00 0.00 67 1012.5
20260905224510 81 273 2.0 8.0 0.00 0.00 0.00 67 1012.6
20260905224011 81 290 3.0 9.0 0.00 0.00 0.00 66 1012.7
20260905223511 82 294 4.0 9.0 0.00 0.00 0.00 66 1012.7
20260905223019 82 321 6.0 17.0 0.00 0.00 0.00 65 1012.7
20260905222516 83 302 9.0 17.0 0.00 0.00 0.00 62 1012.9
20260905222016 85 313 8.0 14.0 0.00 0.00 0.00 58 1012.8
20260905221527 85 289 3.0 8.0 0.00 0.00 0.00 61 1012.8
20260905221014 85 302 0.0 0.0 0.00 0.00 0.00 60 1012.4
20260905220503 85 302 0.0 2.0 0.00 0.00 0.00 61 1012.3
20260905220008 85 302 0.0 8.0 0.00 0.00 0.00 61 1012.4
20260905215508 85 302 0.0 8.0 0.00 0.00 0.00 61 1012.3
20260905215009 85 306 4.0 7.0 0.00 0.00 0.00 62 1012.2
20260905214520 85 326 1.0 5.0 0.00 0.00 0.00 64 1012.1
20260905214011 85 321 0.0 2.0 0.00 0.00 0.00 64 1012.0
20260905213513 84 161 0.0 2.0 0.00 0.00 0.00 62 1012.3
20260905213025 84 106 1.0 13.0 0.00 0.00 0.00 63 1012.5
20260905212515 85 331 1.0 22.0 0.00 0.00 0.00 61 1012.6
20260905212017 85 302 14.0 30.0 0.00 0.00 0.00 58 1012.7
20260905211537 88 346 20.0 30.0 0.00 0.00 0.00 51 1012.9
20260905211017 90 324 12.0 19.0 0.00 0.00 0.00 48 1012.8
20260905210506 93 292 12.0 19.0 0.00 0.00 0.00 43 1012.5
20260905210010 96 286 7.0 14.0 0.00 0.00 0.00 38 1012.7
20260905205507 96 61 2.0 10.0 0.00 0.00 0.00 36 1012.4
20260905205011 97 144 5.0 11.0 0.00 0.00 0.00 36 1012.5
20260905204526 97 101 7.0 11.0 0.00 0.00 0.00 35 1012.6
20260905204013 97 153 4.0 12.0 0.00 0.00 0.00 36 1012.4
20260905203512 97 206 4.0 12.0 0.00 0.00 0.00 35 1012.4
20260905203027 97 155 6.0 13.0 0.00 0.00 0.00 36 1012.4
20260905202514 97 170 7.0 13.0 0.00 0.00 0.00 36 1012.1
20260905202014 97 140 5.0 12.0 0.00 0.00 0.00 36 1012.2
20260905201530 98 360 5.0 14.0 0.00 0.00 0.00 36 1012.3
20260905201007 98 142 7.0 17.0 0.00 0.00 0.00 36 1012.5
20260905200513 98 77 4.0 17.0 0.00 0.00 0.00 35 1012.7
20260905200018 99 148 7.0 16.0 0.00 0.00 0.00 35 1012.7
20260905195510 98 155 8.0 16.0 0.00 0.00 0.00 37 1012.5
20260905195016 98 153 7.0 13.0 0.00 0.00 0.00 36 1012.5
20260905194526 98 178 8.0 13.0 0.00 0.00 0.00 36 1012.5